Regional Weather Roundup
Issued by NWS Northern Indiana

Home | Current Version | Previous Version | Text Only | Print | Product List | Glossary Off
Versions: 1 2 3 4 5 6 7 8 9 10 11 12 13 14 15 16 17 18 19 20 21 22 23 24 25 26 27 28 29 30 31 32 33 34 35 36 37 38 39 40 41 42 43 44 45 46 47 48 49 50

000
ASUS43 KIWX 280110
RWRIWX

KIWX WEATHER ROUNDUP
NATIONAL WEATHER SERVICE NORTHERN INDIANA
900 PM EDT MON MAR 27 2017

NOTE: "FAIR" INDICATES FEW OR NO CLOUDS BELOW 12,000 FEET WITH NO
SIGNIFICANT WEATHER AND/OR OBSTRUCTIONS TO VISIBILITY.

* THESE STATIONS ARE NOT UNDER NWS QUALITY CONTROL. THEY ALSO MAY NOT
  REPORT WEATHER SUCH AS PRECIPITATION OR FOG.

INZ001>027-280200-
NORTHERN INDIANA

CITY           SKY/WX    TMP DP  RH WIND       PRES   REMARKS
GARY*          CLOUDY    41  39  93 NE7       29.95R
VALPARAISO     CLOUDY    45  44  97 N9        29.92R FOG
MICHIGAN CITY* CLOUDY    41  41 100 N5        29.94R
LAPORTE*       CLOUDY    44  44  98 N6        29.92R FOG
KNOX*          CLOUDY    46  37  71 N8        29.90R
SOUTH BEND     CLOUDY    47  45  93 N8        29.92R
ELKHART*       LGT RAIN  50  46  87 N7        29.90S
GOSHEN         CLOUDY    54  49  83 N9        29.89R
MONTICELLO*    CLOUDY    56  52  87 NE7       29.87R
LOGANSPORT*    CLOUDY    54  54 100 CALM      29.88R
ROCHESTER*     CLOUDY    57  54  88 CALM      29.89R
WARSAW*        CLOUDY    52  50  93 N3        29.89R
ANGOLA*        CLOUDY    54  41  62 N5        29.88S
FORT WAYNE     CLOUDY    57  51  80 NE6       29.88R
HUNTINGTON*    CLOUDY    56  54  93 CALM      29.88R
PERU/GRISSOM   DRIZZLE   55  55 100 NE7       29.86R FOG
MARION*        CLOUDY    56  53  90 NE10      29.86S

$$
INZ028>050-280200-
CENTRAL INDIANA

CITY           SKY/WX    TMP DP  RH WIND       PRES   REMARKS
LAFAYETTE      CLOUDY    54  54 100 NE8       29.86R FOG
KOKOMO*        LGT RAIN  55  54  96 NE9       29.87R
MUNCIE*        CLOUDY    60  53  77 NE6       29.84S
INDIANAPOLIS   LGT RAIN  57  54  89 NE7       29.82R

$$
MIZ043>046-050>051-056>058-064>065-071>073-077>080-280200-
SOUTHWEST LOWER MICHIGAN

CITY           SKY/WX    TMP DP  RH WIND       PRES   REMARKS
BATTLE CREEK   CLOUDY    49  46  90 N7        29.92S
BENTON HARBOR  CLOUDY    41  35  79 N7        29.93S
COLDWATER*     CLOUDY    52  49  89 N7        29.91R
HILLSDALE*     CLOUDY    52  46  82 CALM      29.89S
HOLLAND        CLOUDY    41  35  79 N6        29.95R
GRAND RAPIDS   CLOUDY    47  43  86 NW8       29.93R
KALAMAZOO      CLOUDY    49  43  80 N7        29.92S
STURGIS*       CLOUDY    52  49  89 N8        29.89S
THREE RIVERS*  CLOUDY    51  46  85 N6        29.91S

$$
OHZ001>008-015>018-024>025-280200-
NORTHWEST OHIO

CITY           SKY/WX    TMP DP  RH WIND       PRES   REMARKS
WAUSEON*       CLOUDY    55  50  82 NE3       29.89S
DEFIANCE       CLOUDY    54  49  83 CALM      29.88S
FINDLAY        CLOUDY    59  50  72 E3        29.87S
TOLEDO EXPRESS MOCLDY    55  49  80 CALM      29.89R
TOLEDO METCALF CLOUDY    55  51  86 CALM      29.90R
LIMA           CLOUDY    56  53  90 NE5       29.87S

$$
AND FOR LAKE MICHIGAN COASTAL AND OPEN LAKE BUOY OBSERVATIONS

STATION/POSITION TEMP    WIND        PRES    VSBY  WAVE
                 AIR SEA DIR/SP/G                  HT/PER
                 (F)     (DEG/KT/KT) (MB)    (MI)  (FT/S)
CALUMET HARBOR    39     350/  7/  9 1013.6R
MICHIGAN CITY     39      30/ 12/ 14   N/A
BURNS HARBOR      40      50/  9/ 11 1014.2R
SAINT JOSEPH      40      20/  8/ 12 1014.2

$$
&&




USA.gov is the U.S. government's official web portal to all federal, state and local government web resources and services.